RH
84 82 80 80 76 71 69 74 72 72 69 71 76 72 72 72 75 78 81 82 84 87 90 91 93 94 95 96 95 75 55 51 51 48 41 48 64 74 91 95 96 95 94
88 94 85 81 77 76 61 69 70 69 69 68 72 72 72 72 68 74 80 84 85 87 90 91 92 93 94 95 93 80 65 67 69 75 85 94 96 96 96 95 96 95 94
97 100 93 81 76 76 62 65 67 66 67 70 71 72 72 71 71 71 77 81 83 85 88 94 94 94 94 93 91 92 93 95 97 98 97 97 97 96 93 90 89 86 88
100 100 89 79 76 73 61 62 66 66 71 69 75 74 73 73 72 71 71 72 71 74 79 83 94 95 94 92 90 89 89 90 89 88 87 86 87 87 89 90 91 92 92
100 89 84 79 77 71 64 60 64 65 72 69 66 71 74 74 72 73 73 73 72 72 67 69 69 76 79 87 90 87 86 85 85 87 88 89 91 92 93 93 93 94 93
98 93 87 82 77 70 65 68 69 72 69 68 69 71 77 75 74 74 74 74 73 75 74 73 73 71 70 69 71 87 89 89 89 90 90 91 92 93 93 93 94 94 95
96 97 91 86 79 73 70 74 76 71 72 71 75 81 79 78 77 76 74 72 72 73 72 71 71 70 68 68 65 65 76 89 88 89 89 91 93 94 94 95 94 95 95
100 98 91 86 82 81 73 74 77 80 74 71 76 79 90 81 78 76 74 72 70 71 71 69 70 70 69 68 66 64 63 66 85 84 85 87 90 92 96 98 91 88 94
99 96 88 85 87 82 78 76 75 72 75 79 72 74 94 92 86 76 75 74 73 72 71 70 68 68 67 64 60 55 52 52 52 60 79 85 89 96 96 90 93 97 96
94 94 91 88 89 86 81 77 71 70 73 84 78 69 58 58 84 75 73 77 74 72 69 66 65 62 57 52 50 52 54 54 56 59 67 86 94 96 90 92 92 94 99
90 93 88 84 84 88 81 75 75 73 73 78 78 79 73 63 60 67 70 65 66 69 66 59 52 46 45 47 50 55 58 60 61 64 68 82 97 90 83 84 88 99 97
89 87 79 77 83 86 77 72 74 72 74 74 75 74 72 72 76 71 74 67 62 51 48 47 47 42 48 52 54 56 58 61 63 68 72 83 92 82 82 83 84 91 95
88 89 78 78 81 79 76 75 75 75 75 75 72 74 72 69 61 59 60 66 68 56 52 47 45 46 46 51 54 56 58 62 65 71 77 82 83 77 80 77 80 86 80
86 87 76 75 76 76 74 74 76 76 76 76 74 73 72 71 68 64 59 63 81 80 70 53 45 44 52 54 54 55 59 64 68 74 79 86 88 92 98 93 88 82 77
85 83 78 81 81 77 76 78 81 80 78 77 76 74 74 71 70 66 61 57 58 77 80 55 51 47 53 57 59 61 64 66 70 76 84 91 96 98 99 94 92 82 68
84 84 83 84 86 84 81 80 82 80 78 77 76 75 74 71 70 71 71 69 66 63 82 57 52 54 58 58 60 62 70 77 81 83 89 97 100 100 98 90 77 56 55
86 83 83 84 87 84 83 83 84 81 80 79 77 75 74 73 73 75 77 76 75 74 81 72 67 60 58 59 64 72 79 80 84 91 100 99 99 97 89 65 52 70 83
88 86 84 88 89 87 86 84 86 84 81 84 80 78 77 75 76 77 79 79 79 79 81 85 77 72 67 64 67 72 80 89 100 100 100 99 96 82 61 61 63 76 58
89 86 85 87 89 88 87 84 86 84 82 82 80 77 78 81 81 83 83 85 81 81 82 88 85 79 77 76 80 86 99 100 100 100 99 93 85 69 70 64 68 56 33
86 87 87 86 86 88 89 87 88 88 87 85 81 79 86 84 83 83 83 84 86 86 86 86 91 92 89 93 98 100 100 100 99 99 98 94 79 75 84 72 42 41 93
89 88 88 88 87 89 86 85 89 90 92 90 88 84 85 83 79 78 79 77 85 90 94 98 97 95 97 100 99 99 100 100 99 95 90 88 83 72 64 33 56 96 90
98 95 94 92 92 90 86 84 87 92 94 95 95 90 89 86 85 81 80 78 78 83 94 100 99 99 98 99 100 100 100 99 100 100 95 73 64 64 58 27 98 91 82
100 100 100 99 98 92 87 86 84 86 93 94 93 91 90 86 88 87 91 92 94 94 94 91 99 99 99 99 99 100 99 98 100 95 66 74 69 48 38 34 99 93 79
100 100 100 100 100 99 94 89 87 89 92 90 89 90 90 88 91 94 95 100 100 100 100 100 100 100 100 100 100 98 98 96 91 80 59 64 61 32 31 56 95 77 31
100 100 100 100 100 100 98 92 90 98 99 98 95 94 95 91 97 99 100 100 100 100 100 100 100 100 99 100 100 96 94 79 97 96 60 40 50 34 37 56 64 38 31
100 100 100 100 100 100 96 97 97 100 100 100 100 100 100 100 100 100 100 100 100 100 98 99 99 97 94 96 98 90 87 64 86 96 71 49 54 38 34 33 33 28 27
Wind_Speed
40 38 36 34 32 31 35 32 30 27 20 23 23 19 18 18 18 18 17 15 13 11 10 9 8 7 7 6 5 4 3 3 3 4 5 6 7 7 8 9 10 10 11
41 37 38 36 33 32 35 35 31 25 21 25 25 21 17 17 16 17 18 16 15 14 11 10 9 8 8 7 6 5 5 6 6 7 7 8 9 10 10 11 12 12 12
36 33 37 37 35 34 34 34 29 23 20 24 25 23 20 17 16 15 16 16 16 14 13 10 9 9 9 8 7 7 7 8 9 9 10 11 12 13 13 13 14 14 15
35 37 40 39 36 34 36 35 32 23 20 24 26 24 22 19 16 14 14 14 15 15 14 13 11 10 10 9 10 9 10 11 11 12 13 13 13 14 14 15 15 16 16
37 44 43 41 37 35 37 38 33 27 22 21 22 24 23 21 18 16 14 13 13 13 13 13 13 13 13 12 12 12 13 13 13 13 14 14 14 14 15 16 16 16 17
43 44 42 41 39 38 39 37 34 28 26 22 21 20 21 20 19 18 17 15 15 14 13 13 14 14 15 15 15 14 14 13 13 12 12 13 13 14 15 15 16 17 18
45 43 41 41 40 40 42 39 33 31 29 27 22 14 14 16 19 20 19 19 19 18 16 16 17 16 16 16 16 16 15 14 13 12 12 12 11 12 13 14 15 17 18
44 45 43 42 42 38 40 40 35 29 28 30 15 14 2 7 18 20 20 21 20 19 19 19 20 19 18 17 17 15 15 14 13 13 11 11 11 12 13 14 17 18 20
46 46 47 44 43 41 42 41 39 36 25 31 22 9 3 5 4 17 27 24 23 22 21 20 20 21 19 18 17 15 14 14 12 11 11 10 10 11 13 16 17 14 16
46 46 46 44 44 42 41 42 42 38 32 27 25 22 6 6 3 1 10 24 25 24 23 22 22 20 19 18 16 14 13 12 11 10 10 9 9 12 14 13 14 18 16
44 45 47 46 46 43 42 42 42 41 38 30 28 24 13 8 5 2 2 5 16 24 24 22 21 19 17 16 16 14 12 11 11 10 9 8 9 12 14 18 19 15 17
40 45 49 48 47 44 45 46 44 44 41 33 37 30 24 10 8 4 1 3 6 9 17 19 19 19 16 16 15 14 13 13 11 11 9 9 9 12 16 17 18 18 18
38 40 48 46 44 46 45 43 44 43 41 39 36 37 33 27 15 17 7 3 4 8 6 14 19 21 20 18 17 16 15 13 13 12 11 11 13 17 17 18 21 20 21
42 43 49 48 46 46 44 44 44 42 42 39 38 34 35 30 26 22 15 9 1 2 5 9 9 18 16 17 17 16 15 14 13 13 13 15 17 18 17 17 20 22 23
42 42 46 45 45 47 47 45 41 41 41 41 39 35 33 31 27 23 19 15 11 3 2 6 11 12 15 13 13 12 14 13 14 15 17 19 18 17 19 19 19 18 12
41 42 43 42 42 44 46 44 39 40 41 40 38 37 33 30 27 25 21 19 17 15 3 6 5 8 7 13 13 13 12 11 15 17 19 19 19 18 18 13 15 14 12
44 46 47 46 42 44 43 43 39 40 41 39 38 36 34 31 28 27 26 24 22 20 12 12 15 18 16 14 12 12 13 16 18 20 20 22 21 18 10 8 9 8 9
45 46 45 42 41 43 42 42 40 39 41 39 39 37 35 32 31 31 29 29 29 28 26 15 17 19 21 18 16 17 18 18 19 18 19 14 7 4 3 3 6 9 11
41 41 42 41 41 41 42 43 40 40 42 40 39 38 35 33 33 32 32 32 31 29 27 23 17 17 19 17 17 19 18 17 15 12 9 9 7 2 3 4 9 11 10
40 40 40 42 42 40 38 39 39 39 39 39 38 37 33 35 34 34 33 34 31 29 27 26 23 17 17 16 16 20 16 16 14 12 9 6 5 6 10 7 8 7 4
37 38 39 37 39 38 39 40 38 35 35 35 36 37 36 38 35 35 33 33 31 28 25 22 20 16 15 15 16 19 20 17 9 8 5 5 6 4 3 7 6 5 3
35 36 35 36 35 37 40 41 38 35 36 34 34 38 39 37 34 32 31 29 29 30 28 20 20 17 19 18 19 18 14 6 3 6 2 3 2 1 3 7 4 4 7
34 35 36 35 34 39 41 41 42 37 33 33 33 34 37 37 33 30 28 27 26 27 28 27 22 25 25 26 20 14 10 8 5 1 1 2 2 3 4 4 3 5 10
35 35 35 35 36 39 40 41 42 40 34 35 37 37 37 36 31 31 28 27 24 19 19 24 24 21 14 14 15 10 10 10 10 5 3 1 2 2 6 1 5 4 13
31 33 33 34 34 33 40 42 42 39 31 33 35 35 36 35 34 31 29 25 16 12 11 13 15 16 16 13 11 12 11 11 3 2 3 2 5 8 5 2 2 8 13
31 31 30 34 36 34 38 40 41 36 30 30 30 32 33 33 31 30 29 27 26 24 21 19 16 14 13 12 9 9 10 9 7 3 4 1 4 8 4 2 4 13 14
Wind_Direction
179 179 180 179 179 179 179 173 167 167 168 176 175 171 167 168 169 167 167 171 172 170 168 169 171 171 174 179 191 205 229 257 272 287 298 304 308 310 310 312 310 312 311
181 180 183 185 185 183 183 178 174 170 166 171 174 176 176 176 180 181 179 181 184 185 182 185 192 193 196 199 215 235 255 269 279 287 294 297 301 304 307 308 306 308 307
180 181 185 188 187 184 185 183 179 172 167 170 175 179 182 182 183 187 192 193 197 198 197 201 206 214 214 217 231 240 259 274 289 295 295 294 297 299 300 302 301 301 300
181 184 186 188 188 186 184 184 182 179 175 177 184 187 188 187 190 192 198 208 209 211 213 213 216 228 236 237 243 251 260 266 272 278 282 287 289 294 297 297 297 296 296
185 189 188 187 188 189 186 185 184 187 183 181 186 192 194 193 198 202 206 214 220 223 225 228 230 235 241 246 252 261 265 269 272 277 282 286 290 293 295 297 297 298 297
192 190 189 189 189 189 187 186 186 188 187 182 179 184 196 203 206 212 218 222 227 230 237 240 239 246 252 257 259 263 269 273 276 280 284 285 286 289 292 295 298 298 298
192 190 189 189 191 190 189 189 189 187 183 178 167 176 197 208 215 221 227 229 231 232 240 242 248 251 254 260 259 263 267 272 274 274 281 286 288 291 293 296 299 298 299
189 188 190 190 191 190 193 194 192 183 185 182 170 151 199 230 232 229 228 230 233 235 241 245 249 253 257 262 264 264 264 263 265 271 274 279 286 292 296 301 305 304 305
190 191 193 189 190 193 194 196 195 189 182 188 190 160 131 220 184 222 227 230 233 235 241 246 250 253 257 259 262 262 261 261 261 262 269 276 285 294 301 305 307 321 320
191 192 191 190 191 196 197 199 197 195 190 186 187 197 193 150 178 220 224 227 232 237 241 244 248 252 255 258 258 257 254 249 248 253 260 267 281 297 302 308 312 314 322
190 190 192 195 195 196 199 199 198 197 197 195 194 194 191 184 191 142 203 210 226 235 240 244 244 245 248 250 250 247 242 243 247 250 246 262 288 296 300 304 305 317 321
187 191 196 199 199 196 199 203 202 203 202 204 203 205 204 189 190 174 176 190 206 226 235 238 240 238 243 245 242 242 240 241 243 243 243 279 286 297 310 313 313 317 319
185 187 191 195 197 202 204 204 206 206 209 209 212 210 218 218 219 214 201 182 225 241 245 242 240 243 246 240 241 241 243 240 238 236 250 281 282 292 292 297 300 301 309
185 188 193 197 199 202 205 208 209 210 213 215 217 218 221 225 229 230 226 186 213 274 253 242 241 240 236 235 238 237 236 234 235 241 263 277 281 283 284 291 294 302 307
184 187 191 194 198 203 206 208 210 214 217 218 219 223 226 231 229 234 232 231 204 199 264 246 238 242 229 228 223 233 235 240 245 248 264 273 274 276 279 291 295 303 307
182 185 187 192 197 202 208 209 210 216 217 218 221 223 225 229 229 228 229 233 233 229 213 230 252 247 243 232 238 240 240 242 247 260 268 269 261 267 279 292 302 305 302
179 184 188 195 198 203 206 208 209 213 217 219 221 223 226 228 228 230 231 234 236 234 227 241 249 257 261 253 253 248 248 261 261 262 260 254 259 271 281 297 301 310 326
180 182 188 191 197 201 203 206 206 211 215 215 220 223 228 229 229 231 231 233 236 239 237 237 251 253 261 264 264 260 260 260 253 243 248 244 249 258 262 281 305 314 322
177 181 186 189 195 200 203 208 208 212 217 219 221 224 226 227 230 234 236 238 237 240 243 243 249 257 265 260 253 258 254 235 223 227 232 247 232 166 256 286 296 317 318
180 180 187 193 198 200 202 205 208 211 217 220 224 227 224 230 231 235 237 243 243 240 241 246 252 252 249 245 237 232 215 217 213 223 229 251 272 279 291 308 319 341 18
185 185 191 196 197 200 204 206 208 210 212 217 223 229 231 236 238 239 238 239 241 240 237 232 245 250 242 226 219 225 216 208 207 221 245 267 293 309 308 344 7 59 6
184 186 193 197 196 202 207 208 206 206 212 213 217 227 233 236 240 242 245 249 248 240 230 219 228 235 244 234 230 210 185 172 160 213 250 265 268 243 295 349 99 11 9
183 188 194 197 198 205 210 210 211 210 211 214 217 221 228 233 234 234 230 232 234 237 239 244 232 230 229 230 216 188 185 161 141 287 34 216 222 329 311 345 144 354 6
185 189 193 197 200 208 209 211 213 212 214 218 223 225 230 231 229 226 221 221 223 233 245 248 240 229 219 199 187 184 175 142 121 93 52 196 278 330 322 143 181 319 344
186 191 195 197 200 205 210 214 214 206 211 218 226 230 230 231 231 224 215 196 169 134 128 145 143 149 142 140 152 143 144 144 100 121 50 22 359 342 324 194 206 344 346
190 193 196 200 203 206 215 214 209 203 202 209 217 224 231 233 224 213 207 184 145 147 149 139 129 121 113 119 129 133 150 152 127 119 20 31 24 11 327 299 338 338 342